AQI (44)

Current Conditions for Foresthill, CA. Sunny, Dry   
Visibility: 10 miles
Space WX Alerts: WATCH:  Geomagnetic Storm Category G1 Predicted ( Latest Alert ) - Issue Time: 2018 Jul 21 1831 UTC

  Summary / Temperature 

Current Temperature
85.2°F
29.6°C
(24/hr Ago)
86.2°F
(Apparent temp)
86.9°F
Warm
Heat Index
84.9°F 

92.1°F/ 33.4°C
Noticeable discomfort

 Temp Rate:

 24/hr Difference:

 Avg Running Temp:

 Todays High:

 Todays Low:

 Y-days High:

 Y-days Low:

 Todays HeatIdx:

 Y-days HeatIdx:

 Evapotranspiration:

-0.1°F/hr 

-1°F

84.9°F

86.0°F 2:12pm

70.6°F 7:26am

87.9°F 1:25pm

71.2°F 6:35am

85.5°F 2:17pm

85.2°F 3:17pm

0.172 in

115' Above Ground

 Temperature:

 6'AGL VRS 115'AGL:

 Avg Running Temp:

 Humidity:

 Todays High:

 Todays Low:

 Y-days High:

 Y-days Low:

86.0°F 

+0.8°F

85.1°F

39% 

86.0°F 2:30pm

72.0°F 6:15am

89.0°F 3:08pm

73.0°F 6:07am

Temp & Humidity Graphs

  Wind 

Wind Speed

 Calm

Gusting to

 8.0 mph

Wind from WSW

240°  WSW

Calm

 Avg speed:

 Wind Run:

 Peak Gust:

  2.0 mph 

38.0 miles

  16.0 mph 4:32am

  Almanac  

Moon age: 9 days,10 hours,54 minutes,71%

Waxing Gibbous
71%
Illuminated
9 days in cycle

 Moonrise:

 Moonset:

 Sunrise:

 Sunset:

 Solar Noon:

3:22pm

1:29am

5:55am

8:25pm

1:10pm

1min 29s less daylight tomorrow 

  Solar Radiation 

(Current Solar)
  592 W/m2 (76%)
(Todays High)
 875 W/m2@1:05pm
Feels like: 100.6°F in the sun

Rain

 Rain Today:

 Rain Rate (/hr):

 Rain last hour:

 Rain Yesterday:

 This Month:

 Season Total:

56 Days Since Last Rain Day

0.00 in

0.000 in

0.00 in

0.00 in

0.00 in

0.00 in

Updated Time

Updated: 7/21/18  4:28pm

(Updated  sec ago)

Humidity & Barometer

 Humidity:

 Wetbulb:

 Dew Point:

 Barometer:

41% 

68.9°F 

58.8°F 

29.909 inHg 

 Baro Trend:  Steady 
Northern Calif
Preparedness
Fire 
Level 

    UV Index  

(Current UV)
3.8  Medium
(Todays High) @ 12:48pm
8.3   Very High

National Weather Service Forecast

This
Afternoon
This Afternoon: Mostly Sunny
Mostly Sunny
Tonight

Tonight: Partly Cloudy
Partly Cloudy
Sunday

Sunday: Mostly Sunny
Mostly Sunny
Sunday
Night
Sunday Night: Mostly Clear
Mostly Clear
Monday

Monday: Sunny
Sunny
Monday
Night
Monday Night: Mostly Clear
Mostly Clear
Hi 87 °F Lo 70 °F Hi 89 °F Lo 70 °F Hi 93 °F Lo 71 °F

Foresthill Probe 2 Stats  
Foresthill Probe 2: is located on Thomas Street
at 3000 feet. The main Foresthill Weather site
is located on Melody ln at the 2860 foot elevation

Calm
87.7°F
30.9°C
Temp Rate:
-0.3°F
Calm
Gusting to
3.0 mph
(Humidity)
40%
Wind from W
261°  W
Updated: 21/07/18 - 16:24:04
 Todays High: 90.2°F 13:37
 Todays Low: 70.0°F 06:50
 Rain Today: 0.00 in
 Season Total: 0.00 in

Foresthill Wx: Monthly,Yearly, Highs and Lows 

Foresthill  
This Weather Data is coming from the main Foresthill
Weather site located on Melody ln at the 2860 foot
elevation
Not Foresthill Probe 2
Weather Data
Month
  High
Month
  Low
Year
High
Year
Low
Temp 92.4°F
7/19/18
60.2°F
7/5/18
92.4°F
7/19/18
21.9°F
2/23/18
Humidity 73%
7/4/18
12%
7/8/18
100%
1/8/18
12%
7/8/18
Heat Index 91.6°F
7/18/18
63.2°F
7/5/18
91.6°F
7/18/18
27.1°F
2/20/18
Wind Chill 92.4°F
7/19/18
58.8°F
7/5/18
92.4°F
7/19/18
9.2°F
2/23/18
Wind Gust 20 mph
7/3/18
0 mph
7/1/18
43 mph
3/1/18
0 mph
1/1/18
Barometer 30.18 in
7/5/18
29.73 in
7/3/18
30.55 in
1/27/18
29.60 in
6/16/18
ET 0.25 in
7/8/18
0.00 in
7/1/18
0.25 in
6/24/18
0.00 in
1/1/18
Dew Point 65.3°F
7/15/18
28.9°F
7/8/18
65.3°F
7/15/18
7.6°F
2/11/18
Pacific Satellite US Radar Satellite Imagery Sacramento,CA.  (click to enlarge)
NWS Weather Forecast - Summary
Updated: Saturday, July 21, 2018 - 3:00pm PDT
Isolated Afternoon Mountain Thunderstorms Possible Through Early Next Week
Current Interstate Highway Conditions for I-80 & US-50

[I 80: IN THE SAN FRANCISCO BAY AREA - SOLANO CO]
no traffic restrictions are reported for this area.

[I 80: IN THE NORTHERN CALIFORNIA AREA & SIERRA NEVADA]
no traffic restrictions are reported for this area.

[US 50: IN THE SACRAMENTO VALLEY & THE LAKE TAHOE BASIN]
no traffic restrictions are reported for this area.
NWS Weather Forecast: This Afternoon and Tonight (Updated: Sat, 21-Jul-2018 3:23pm PDT)
This
Afternoon
This Afternoon: Mostly Sunny
Mostly Sunny

Hi 87 °F
NWS forecast: Mostly sunny, with a high near 87. West southwest wind around 8 mph.
Tonight

Tonight: Partly Cloudy
Partly Cloudy

Lo 70 °F
NWS forecast: Partly cloudy, with a low around 70. East southeast wind 3 to 8 mph.
YR.NO 10 Day Weather forecast
Last update: 07/21/2018 @ 12:33
Next update: 07/22/2018 @ 01:00
Provided by: 22
      Temperature Precipitation Pressure Wind  
Today
07/21/2018
15:00 18:00 88°F   29.93 inHg Light breeze from west-southwest 6 mph
  18:00 00:00 84°F   29.93 inHg Light breeze from west-southwest 6 mph
    (Click to enlarge)
meteogram

    Forecast for next 9 days

      Temperature Precip Pressure Wind  
Sunday
07/22/2018
00:00 06:00 70°F   30.01 inHg Light air from east 3 mph
  06:00 12:00 63°F   30.01 inHg Light air from east 2 mph
  12:00 18:00 88°F   30.03 inHg Light breeze from west-southwest 6 mph
  18:00 00:00 86°F   29.99 inHg Light breeze from west-southwest 6 mph
      Temperature Precip Pressure Wind  
Monday
07/23/2018
00:00 06:00 72°F   30.04 inHg Light air from east-northeast 1 mph
  06:00 12:00 64°F   30.01 inHg Light breeze from east-northeast 4 mph
  12:00 18:00 91°F   30.01 inHg Light breeze from west 5 mph
  18:00 00:00 90°F   29.96 inHg Light breeze from southwest 5 mph
      Temperature Precip Pressure Wind  
Tuesday
07/24/2018
00:00 06:00 72°F   29.99 inHg Light breeze from east-northeast 4 mph
  05:00 11:00 64°F   29.96 inHg Light breeze from east-northeast 6 mph
  11:00 17:00 91°F   29.97 inHg Light breeze from west 6 mph
  17:00 23:00 95°F   29.91 inHg Light breeze from west-southwest 6 mph
  23:00 05:00 75°F   29.97 inHg Light breeze from east 4 mph
      Temperature Precip Pressure Wind  
Wednesday
07/25/2018
05:00 11:00 64°F   29.96 inHg Light breeze from east-northeast 5 mph
  11:00 17:00 93°F   29.98 inHg Light breeze from southwest 6 mph
  17:00 23:00 95°F   29.94 inHg Light breeze from west-southwest 7 mph
  23:00 05:00 73°F   29.97 inHg Light breeze from east 4 mph
      Temperature Precip Pressure Wind  
Thursday
07/26/2018
05:00 11:00 63°F   29.94 inHg Light breeze from east-northeast 5 mph
  11:00 17:00 91°F   29.96 inHg Light breeze from southwest 6 mph
  17:00 23:00 91°F   29.88 inHg Light breeze from southwest 6 mph
  23:00 05:00 70°F   29.89 inHg Light breeze from east-northeast 4 mph
      Temperature Precip Pressure Wind  
Friday
07/27/2018
05:00 11:00 61°F   29.86 inHg Light breeze from east-northeast 5 mph
  11:00 17:00 90°F   29.88 inHg Light breeze from west-southwest 6 mph
  17:00 23:00 91°F   29.83 inHg Light breeze from southwest 6 mph
  23:00 05:00 70°F   29.86 inHg Light air from east 3 mph
      Temperature Precip Pressure Wind  
Saturday
07/28/2018
05:00 11:00 61°F   29.86 inHg Light breeze from east-northeast 4 mph
  11:00 17:00 88°F   29.90 inHg Light breeze from west-southwest 6 mph
  17:00 23:00 90°F   29.88 inHg Light breeze from southwest 6 mph
  23:00 05:00 64°F   29.94 inHg Light air from east 2 mph
      Temperature Precip Pressure Wind  
Sunday
07/29/2018
05:00 11:00 64°F   29.93 inHg Light air from east-northeast 3 mph
  11:00 17:00 90°F   29.96 inHg Light breeze from southwest 5 mph
  17:00 23:00 91°F   29.91 inHg Light breeze from southwest 6 mph
  23:00 05:00 70°F   29.95 inHg Light air from east 2 mph
      Temperature Precip Pressure Wind  
Monday
07/30/2018
05:00 11:00 63°F   29.93 inHg Light breeze from east-northeast 5 mph
  11:00 17:00 88°F   29.97 inHg Light breeze from southwest 5 mph
  17:00 23:00 88°F   29.93 inHg Light breeze from west-northwest 4 mph
  23:00 05:00 73°F   29.94 inHg Light air from east-northeast 2 mph

NOAA Local Storm Report
2 MILES EAST-SOUTHEAST OF SPARKS   ( More )
DATE
07/21/2018
TIME
4:00 PM
COUNTY
WASHOE
STATE
NV
GEOGRAPHIC
39.54N 119.70W
SOURCE
LAW ENFORCEMENT
DEBRIS FLOW
sparks police dept. Reported a mud slide near the vista/loop area in sparks, nv that has stopped traffic on the roadway. Mud slide triggered by heavy rainfall due to thunderstorms.
How Close Are We To this Month's Temperature Record ?
Updated Saturday, Jul 21, 2018- 4:20:00 PM

Current Temperature: 85.2°F

July's High: Temperature Record 98.1°F - Set on Wed, Jul 29, 2015 - 2:57:00 PM
We are currently 12.9°F Less than this Month's record High

July's Low: Temperature Record 51.4°F - Set on Sun, Jul 10, 2016 - 7:04:00 AM
We are currently 33.8°F More than this Month's record Low

Weather History For Saturday, July 21, 2018


On this Day - In Weather History ...
Data courtesy of weatherforyou.com
powered by Cumulus v1.9.3 (1059)
Ambient Weather VWS v14.00
Top Contact Website Map Copyright © 2007 - 2018 Foresthillweather.com Never base important decisions on this or any weather information obtained from the Internet